• în România
  • Lista ţărilor
  • Pe 7 zile
  • Temperatura apei
  • Hartă satelitară
  • Meteo pe hartă
  • Widget-uri
  • user-avatar
    Intrare

    Meteo pe oră la Jablanac

    Astăzi, 22 Iunie, Vineri

    Timp Temperatura Precipitaţii Vânt Presiune Umiditate
    00:00 +21°C° 0,1 mm 2 m/s 753 mmHg 89%
    01:00 +20°C° 0,1 mm 2 m/s 753 mmHg 89%
    02:00 +20°C° 0,5 mm 3 m/s 753 mmHg 90%
    03:00 +20°C° 0,5 mm 3 m/s 753 mmHg 90%
    04:00 +20°C° 0,5 mm 3 m/s 753 mmHg 91%
    05:00 +20°C° 1 mm 3 m/s 753 mmHg 91%
    06:00 +20°C° 1 mm 4 m/s 753 mmHg 91%
    07:00 +21°C° 1 mm 4 m/s 754 mmHg 91%
    08:00 +19°C° 1,7 mm 5 m/s 754 mmHg 93%
    09:00 +16°C° 1,7 mm 7 m/s 755 mmHg 94%
    10:00 +15°C° 1,7 mm 8 m/s 755 mmHg 95%
    11:00 +13°C° 1,5 mm 9 m/s 756 mmHg 95%
    12:00 +12°C° 1,5 mm 10 m/s 756 mmHg 94%
    13:00 +10°C° 1,5 mm 12 m/s 757 mmHg 93%
    14:00 +11°C° 0,7 mm 11 m/s 757 mmHg 92%
    15:00 +11°C° 0,7 mm 11 m/s 757 mmHg 91%
    16:00 +11°C° 0,7 mm 10 m/s 757 mmHg 90%
    17:00 +11°C° 0,1 mm 10 m/s 757 mmHg 86%
    18:00 +12°C° 0,1 mm 9 m/s 757 mmHg 81%
    19:00 +12°C° 0,1 mm 8 m/s 757 mmHg 76%
    20:00 +12°C° 0 mm 8 m/s 758 mmHg 76%
    21:00 +11°C° 0 mm 8 m/s 758 mmHg 76%
    22:00 +11°C° 0 mm 8 m/s 759 mmHg 77%
    23:00 +11°C° 0 mm 8 m/s 759 mmHg 76%

    Mâine, 23 Iunie, Sâmbătă

    Timp Temperatura Precipitaţii Vânt Presiune Umiditate
    00:00 +11°C° 0 mm 8 m/s 759 mmHg 75%
    01:00 +11°C° 0 mm 8 m/s 759 mmHg 74%
    02:00 +10°C° 0 mm 8 m/s 760 mmHg 75%
    03:00 +10°C° 0 mm 7 m/s 760 mmHg 76%
    04:00 +10°C° 0 mm 7 m/s 760 mmHg 76%
    05:00 +11°C° 0 mm 7 m/s 760 mmHg 72%
    06:00 +14°C° 0 mm 7 m/s 760 mmHg 69%
    07:00 +15°C° 0 mm 7 m/s 760 mmHg 65%
    08:00 +17°C° 0 mm 6 m/s 760 mmHg 59%
    09:00 +19°C° 0 mm 6 m/s 760 mmHg 53%
    10:00 +21°C° 0 mm 6 m/s 760 mmHg 47%
    11:00 +21°C° 0 mm 5 m/s 759 mmHg 46%
    12:00 +22°C° 0 mm 5 m/s 759 mmHg 44%
    13:00 +23°C° 0 mm 4 m/s 759 mmHg 43%
    14:00 +23°C° 0 mm 4 m/s 758 mmHg 44%
    15:00 +23°C° 0 mm 4 m/s 758 mmHg 45%
    16:00 +23°C° 0 mm 4 m/s 758 mmHg 46%
    17:00 +22°C° 0 mm 4 m/s 758 mmHg 53%
    18:00 +20°C° 0 mm 4 m/s 757 mmHg 61%
    19:00 +19°C° 0 mm 4 m/s 757 mmHg 69%
    20:00 +18°C° 0 mm 4 m/s 758 mmHg 73%
    21:00 +15°C° 0 mm 4 m/s 758 mmHg 78%
    22:00 +14°C° 0 mm 4 m/s 759 mmHg 82%
    23:00 +14°C° 0 mm 4 m/s 758 mmHg 82%

    Poimâine, 24 Iunie, Duminică

    Timp Temperatura Precipitaţii Vânt Presiune Umiditate
    00:00 +13°C° 0 mm 4 m/s 758 mmHg 82%
    01:00 +13°C° 0 mm 4 m/s 758 mmHg 82%
    02:00 +13°C° 0 mm 4 m/s 758 mmHg 82%
    03:00 +13°C° 0 mm 4 m/s 758 mmHg 82%
    04:00 +12°C° 0 mm 4 m/s 758 mmHg 82%
    05:00 +14°C° 0 mm 4 m/s 758 mmHg 78%
    06:00 +15°C° 0 mm 4 m/s 758 mmHg 74%
    07:00 +17°C° 0 mm 4 m/s 758 mmHg 70%
    08:00 +18°C° 0 mm 4 m/s 758 mmHg 67%
    09:00 +19°C° 0 mm 4 m/s 758 mmHg 64%
    10:00 +20°C° 0 mm 3 m/s 758 mmHg 61%
    11:00 +21°C° 0,1 mm 3 m/s 758 mmHg 62%
    12:00 +21°C° 0,1 mm 3 m/s 758 mmHg 62%
    13:00 +21°C° 0,1 mm 3 m/s 758 mmHg 62%
    14:00 +21°C° 0,1 mm 3 m/s 758 mmHg 65%
    15:00 +21°C° 0,1 mm 3 m/s 757 mmHg 67%
    16:00 +21°C° 0,1 mm 4 m/s 757 mmHg 69%
    17:00 +20°C° 0 mm 4 m/s 757 mmHg 73%
    18:00 +19°C° 0 mm 4 m/s 757 mmHg 77%
    19:00 +19°C° 0 mm 4 m/s 757 mmHg 80%
    20:00 +18°C° 0 mm 4 m/s 757 mmHg 83%
    21:00 +17°C° 0 mm 4 m/s 757 mmHg 85%
    22:00 +15°C° 0 mm 4 m/s 758 mmHg 87%
    23:00 +15°C° 0 mm 4 m/s 757 mmHg 87%

    25 Iunie, Luni

    Timp Temperatura Precipitaţii Vânt Presiune Umiditate
    00:00 +15°C° 0 mm 5 m/s 757 mmHg 88%
    01:00 +15°C° 0 mm 5 m/s 757 mmHg 88%
    02:00 +14°C° 0 mm 5 m/s 757 mmHg 88%
    03:00 +14°C° 0 mm 5 m/s 757 mmHg 88%
    04:00 +14°C° 0 mm 6 m/s 757 mmHg 89%
    05:00 +14°C° 0 mm 6 m/s 757 mmHg 87%
    06:00 +15°C° 0 mm 7 m/s 757 mmHg 84%
    07:00 +16°C° 0 mm 7 m/s 757 mmHg 82%
    08:00 +17°C° 0 mm 7 m/s 757 mmHg 74%
    09:00 +20°C° 0 mm 7 m/s 757 mmHg 66%
    10:00 +21°C° 0 mm 7 m/s 757 mmHg 57%
    11:00 +22°C° 0 mm 7 m/s 757 mmHg 54%
    12:00 +23°C° 0 mm 6 m/s 757 mmHg 51%
    13:00 +24°C° 0 mm 6 m/s 757 mmHg 47%
    14:00 +25°C° 0 mm 5 m/s 757 mmHg 48%
    15:00 +25°C° 0 mm 5 m/s 757 mmHg 48%
    16:00 +25°C° 0 mm 5 m/s 756 mmHg 48%
    17:00 +22°C° 0 mm 5 m/s 757 mmHg 55%
    18:00 +21°C° 0 mm 5 m/s 757 mmHg 62%
    19:00 +20°C° 0 mm 6 m/s 757 mmHg 69%
    20:00 +19°C° 0 mm 6 m/s 757 mmHg 73%
    21:00 +17°C° 0 mm 6 m/s 757 mmHg 77%
    22:00 +16°C° 0 mm 6 m/s 758 mmHg 82%
    23:00 +15°C° 0 mm 6 m/s 757 mmHg 82%

    26 Iunie, Marţi

    Timp Temperatura Precipitaţii Vânt Presiune Umiditate
    00:00 +15°C° 0 mm 6 m/s 757 mmHg 83%
    01:00 +15°C° 0 mm 6 m/s 757 mmHg 84%
    02:00 +15°C° 0 mm 6 m/s 757 mmHg 85%
    03:00 +14°C° 0 mm 7 m/s 757 mmHg 86%
    04:00 +14°C° 0 mm 7 m/s 757 mmHg 87%
    05:00 +15°C° 0 mm 7 m/s 757 mmHg 83%
    06:00 +16°C° 0 mm 7 m/s 757 mmHg 80%
    07:00 +17°C° 0 mm 8 m/s 757 mmHg 76%
    08:00 +18°C° 0 mm 8 m/s 757 mmHg 71%
    09:00 +20°C° 0 mm 8 m/s 757 mmHg 66%
    10:00 +22°C° 0 mm 8 m/s 757 mmHg 61%
    11:00 +22°C° 0,1 mm 8 m/s 756 mmHg 62%
    12:00 +22°C° 0,1 mm 8 m/s 756 mmHg 63%
    13:00 +22°C° 0,1 mm 8 m/s 756 mmHg 64%
    14:00 +22°C° 0,2 mm 8 m/s 756 mmHg 67%
    15:00 +22°C° 0,2 mm 7 m/s 756 mmHg 69%
    16:00 +22°C° 0,2 mm 7 m/s 756 mmHg 72%
    17:00 +21°C° 0,1 mm 7 m/s 756 mmHg 73%
    18:00 +21°C° 0,1 mm 8 m/s 756 mmHg 74%
    19:00 +21°C° 0,1 mm 8 m/s 756 mmHg 75%
    20:00 +20°C° 0 mm 8 m/s 756 mmHg 76%
    21:00 +20°C° 0 mm 7 m/s 756 mmHg 76%
    22:00 +18°C° 0 mm 7 m/s 756 mmHg 77%
    23:00 +18°C° 0 mm 7 m/s 756 mmHg 78%

    27 Iunie, Miercuri

    Timp Temperatura Precipitaţii Vânt Presiune Umiditate
    00:00 +18°C° 0 mm 7 m/s 756 mmHg 78%
    01:00 +18°C° 0 mm 8 m/s 756 mmHg 79%
    02:00 +17°C° 0 mm 8 m/s 756 mmHg 80%
    03:00 +17°C° 0 mm 8 m/s 756 mmHg 81%
    04:00 +17°C° 0 mm 8 m/s 756 mmHg 81%
    05:00 +17°C° 0 mm 7 m/s 756 mmHg 79%
    06:00 +18°C° 0 mm 7 m/s 756 mmHg 77%
    07:00 +20°C° 0 mm 7 m/s 756 mmHg 74%
    08:00 +21°C° 0 mm 7 m/s 756 mmHg 70%
    09:00 +23°C° 0 mm 7 m/s 756 mmHg 65%
    10:00 +24°C° 0 mm 7 m/s 756 mmHg 60%
    11:00 +26°C° 0 mm 6 m/s 756 mmHg 56%
    12:00 +27°C° 0 mm 6 m/s 756 mmHg 52%
    13:00 +28°C° 0 mm 6 m/s 755 mmHg 48%
    14:00 +28°C° 0 mm 5 m/s 755 mmHg 48%
    15:00 +28°C° 0 mm 5 m/s 755 mmHg 47%
    16:00 +28°C° 0 mm 5 m/s 755 mmHg 47%
    17:00 +26°C° 0 mm 5 m/s 755 mmHg 54%
    18:00 +25°C° 0 mm 5 m/s 755 mmHg 61%
    19:00 +23°C° 0 mm 5 m/s 755 mmHg 68%
    20:00 +22°C° 0 mm 5 m/s 756 mmHg 71%
    21:00 +21°C° 0 mm 5 m/s 756 mmHg 74%
    22:00 +20°C° 0 mm 4 m/s 756 mmHg 76%
    23:00 +19°C° 0 mm 5 m/s 756 mmHg 78%
    Arată mai mult